Volver al catálogo

STARLINK-38239

ActivoComunicacionesSSO
NORAD 100314·PAYLOAD·🇺🇸 United States

Lanzado Aug 12, 2026 desde Vandenberg Space Force Base

Loading…

Próximos Pases (próximas 24 horas)

TLE

ActualizadoSource: Space-Track

Época: Sep 14, 2026, 18:41 UTC

1 A0314U 26184P   26257.77881558  .00017798  00000-0  55265-3 0  9998
2 A0314  97.2839 122.9805 0001086  78.8510 281.2854 15.33426285  6486

Sigue STARLINK-38239 en tiempo real con AllMySat

Download on the App Store